Погода в Троицком

Россия / Свердловская область     57°03′39″N   63°44′39″E
темп.,
°C
ветер,
м/с
пор.,
м/с
влажн.,
%
обл.,
%
осадки,
мм/ч
давл.,
гПа
погр.,
м
12 мая, ср
ср1223:00+14юз24407 0.0 102647
02:00+13зюз364231 0.0 102599
05:00+12зсз355079 0.0 102699
08:00+16ссв3567100 0.0 1027456
11:00+19с34475 0.0 10271272
14:00+22ссз453475 0.0 10271854
17:00+22с453348 0.0 10271963
20:00+18ссв224888 0.0 102623
13 мая, чт
чт1323:00+15з11545 0.0 102711
02:00+14зюз356189 0.0 102677
05:00+12з37675 0.0 1026130
08:00+18сз46515 0.0 1026367
11:00+24сз573867 0.0 10251794
14:00+26ссз58315 0.0 10242454
17:00+27с57304 0.0 10242624
20:00+22св364716 0.0 1024144
14 мая, пт
пт1423:00+17юв11625 0.0 102611
02:00+15ююв12675 0.0 102611
05:00+14ю22725 0.0 102728
08:00+21ююз36522 0.0 1026374
11:00+26зюз463313 0.0 10251404
14:00+29зюз56265 0.0 10232686
17:00+29зюз57255 0.0 10223081
20:00+24зюз224019 0.0 102136
15 мая, сб
сб1523:00+20з39475 0.0 1021133
02:00+17з385133 0.0 1021138
05:00+16зюз396011 0.0 1022160
08:00+22з4849100 0.0 1022334
11:00+27з593397 0.0 10211737
14:00+30з69245 0.0 10202853
17:00+30з582698 0.0 10193027
20:00+25зюз35411 0.0 101888
16 мая, вс
вс1623:00+20з375151 0.0 1019117
02:00+19з3115194 0.0 1019238
05:00+17зюз396257 0.0 1019175
08:00+23з48455 0.0 1019334
11:00+28з57285 0.0 10191329
14:00+31з58215 0.0 10182535
17:00+31зюз57205 0.0 10163358
20:00+26юз39335 0.0 1016192